Regional Weather Roundup
Issued by NWS

Home | Current Version | Previous Version | Graphics & Text | Print | Product List | Glossary On
Versions: 1 2 3 4 5 6 7 8 9 10 11 12 13 14 15 16 17 18 19 20 21 22 23 24 25 26 27
000
ASUS45 KCYS 231010
RWRWY

WYOMING REGIONAL WEATHER ROUNDUP
NATIONAL WEATHER SERVICE CHEYENNE WY
400 AM MDT THU MAR 23 2017

NOTE:  "FAIR" INDICATES FEW OR NO CLOUDS BELOW 12,000 FEET
WITH NO SIGNIFICANT WEATHER AND/OR OBSTRUCTIONS TO VISIBILITY.

WYZ001-231100-
YELLOWSTONE NATIONAL PARK

CITY           SKY/WX    TMP DP  RH WIND       PRES   REMARKS
LK YELLOWSTONE   N/A     29  28  96 CALM      29.82F
W YELLOWSTONE  NOT AVBL

$$
WYZ002>013-054>058-071-098>099-231100-
NORTHERN WYOMING

CITY           SKY/WX    TMP DP  RH WIND       PRES   REMARKS
JACKSON        CLOUDY    34  34 100 N7        29.79R WCI  28
CODY           FAIR      44  36  73 NW6       29.75F
GREYBULL       FAIR      48  41  76 N7        29.67F
WORLAND        CLOUDY    50  41  71 NW9       29.67F
SHERIDAN       CLOUDY    46  41  82 W7        29.74F
BUFFALO        LGT RAIN  45  38  76 N12       29.75S
GILLETTE       LGT RAIN  50  42  74 W6        29.72R
HULETT         CLOUDY    46  41  81 NW3       29.73R
NEWCASTLE      FAIR      46  36  66 NE9       29.70F

$$
WYZ014>020-022>026-101>103-231100-
CENTRAL WYOMING

CITY           SKY/WX    TMP DP  RH WIND       PRES   REMARKS
BIG PINEY      FLURRIES  33  33 100 CALM      29.77F
PINEDALE       CLOUDY    32  32 100 CALM      29.78F
DUBOIS         CLOUDY    34  30  86 MISG      29.74F
LANDER         LGT RAIN  42  37  82 SE15      29.73S
RIVERTON       LGT RAIN  43  40  89 S8        29.74S
CASPER         MOCLDY    37  35  92 NW5       29.73F WCI  33
DOUGLAS        FAIR      43  38  82 N7        29.72F

$$
WYZ021-027>030-104>119-231100-
SOUTHERN WYOMING

CITY           SKY/WX    TMP DP  RH WIND       PRES   REMARKS
EVANSTON       LGT RAIN  37  34  89 NE9       29.72F WCI  30
KEMMERER       MIX PCPN  34  32  93 N8        29.75F WCI  27
ROCK SPRINGS   LGT RAIN  37  34  89 NE8       29.75F WCI  31
DIXON            N/A     36  32  85 NE7       29.79F WCI  31
RAWLINS        FAIR      41  32  70 SW13G18   29.77F
SARATOGA       FAIR      37  30  75 S6        29.78F WCI  33
LARAMIE        FAIR      36  24  62 NW3       29.80R
CHEYENNE       FAIR      38  33  82 W10       29.73F WCI  31
TORRINGTON     FAIR      44  36  73 E9        29.68F
PINE BLUFFS    FAIR      34  32  93 W5        29.72F WCI  30

$$




USA.gov is the U.S. government's official web portal to all federal, state and local government web resources and services.